Time_in_sec,Latitude,Longitude,Altitude,Nbsat_max_qualitysignal,Nbsat_locked,valid_data
1326901811.02569604,47.37637711,8.55036449,490.44677734,6,7,1
1326901919.76546359,47.37634277,8.55031204,489.57531738,8,8,1
1326901919.82450294,47.37634277,8.55031204,489.58264160,8,8,1
1326901919.86549282,47.37634277,8.55031204,489.59136963,8,8,1
1326901919.91755795,47.37634277,8.55031204,489.59713745,8,8,1
1326901919.96521425,47.37634277,8.55031109,489.77682495,8,8,1
1326901920.01655388,47.37634277,8.55031109,489.78469849,8,8,1
1326901920.07765102,47.37634277,8.55031109,489.79254150,8,8,1
1326901920.11654663,47.37634277,8.55031109,489.80191040,8,8,1
1326901920.17753911,47.37634277,8.55031109,489.80810547,8,8,1
1326901920.21667624,47.37634277,8.55031109,489.98751831,8,8,1
1326901920.27687597,47.37634277,8.55031109,489.99423218,8,8,1
1326901920.32557559,47.37634277,8.55031109,490.00424194,8,8,1
1326901920.36552048,47.37634277,8.55031109,490.01257324,8,8,1
1326901920.42464304,47.37634277,8.55031109,490.01919556,8,8,1
1326901920.46512723,47.37634277,8.55031109,490.19302368,8,8,1
1326901920.52557278,47.37634277,8.55031109,490.20010376,8,8,1
1326901920.57750010,47.37634277,8.55031109,490.21069336,8,8,1
1326901920.61758184,47.37634277,8.55031109,490.21948242,8,8,1
1326901920.66456676,47.37634277,8.55031109,490.22647095,8,8,1
1326901920.72552228,47.37634277,8.55031013,490.38311768,8,8,1
1326901920.77669549,47.37634277,8.55031013,490.39422607,8,8,1
1326901920.82555676,47.37634277,8.55031013,490.40341187,8,8,1
1326901920.86549854,47.37634277,8.55031013,490.41256714,8,8,1
1326901920.91826367,47.37634277,8.55031013,490.41989136,8,8,1
1326901920.96452403,47.37634277,8.55030918,490.56848145,8,8,1
1326901921.01658392,47.37634277,8.55030918,490.57806396,8,8,1
1326901921.06563592,47.37634277,8.55030918,490.58761597,8,8,1
1326901921.11756921,47.37634277,8.55030918,490.59707642,8,8,1
1326901921.16494513,47.37634277,8.55030918,490.60650635,8,8,1
1326901921.22462726,47.37634277,8.55030918,490.75955200,8,8,1
1326901921.26479149,47.37634277,8.55030918,490.77145386,8,8,1
1326901921.32475233,47.37634277,8.55030918,490.77938843,8,8,1
1326901921.37752867,47.37634277,8.55030918,490.79122925,8,8,1
1326901921.41748905,47.37634277,8.55030918,490.80105591,8,8,1
1326901921.47650790,47.37634277,8.55030823,490.95333862,8,8,1
1326901921.52549267,47.37634277,8.55030823,490.96575928,8,8,1
1326901921.57709503,47.37634277,8.55030823,490.97604370,8,8,1
1326901921.61755681,47.37634277,8.55030823,490.98629761,8,8,1
1326901921.67661428,47.37634277,8.55030823,490.99447632,8,8,1
1326901921.72529173,47.37634277,8.55030727,491.15213013,8,8,1
1326901921.76565623,47.37634277,8.55030727,491.16284180,8,8,1
1326901921.82552338,47.37634277,8.55030727,491.17138672,8,8,1
1326901921.87754679,47.37634277,8.55030727,491.18414307,8,8,1
1326901921.92865801,47.37634277,8.55030727,491.19476318,8,8,1
1326901921.96466470,47.37634277,8.55030632,491.35134888,8,8,1
1326901922.02566242,47.37634277,8.55030632,491.36026001,8,8,1
1326901922.07656908,47.37634277,8.55030632,491.37359619,8,8,1
1326901922.11541653,47.37634277,8.55030632,491.38467407,8,8,1
1326901922.17488647,47.37634277,8.55030632,491.39349365,8,8,1
1326901922.22555971,47.37634277,8.55030632,491.55151367,8,8,1
1326901922.27658129,47.37634277,8.55030632,491.56304932,8,8,1
1326901922.32550025,47.37634277,8.55030632,491.57455444,8,8,1
1326901922.37758732,47.37634277,8.55030632,491.58599854,8,8,1
1326901922.42462730,47.37634277,8.55030632,491.59741211,8,8,1
1326901922.48154211,47.37634277,8.55030632,491.74929810,8,8,1
1326901922.52542877,47.37634277,8.55030632,491.76123047,8,8,1
1326901922.57750463,47.37634277,8.55030632,491.77310181,8,8,1
1326901922.61656570,47.37634277,8.55030632,491.78491211,8,8,1
1326901922.67655325,47.37634277,8.55030632,491.79431152,8,8,1
1326901922.72965193,47.37634277,8.55030537,491.94146729,8,8,1
1326901922.77755022,47.37634277,8.55030537,491.95370483,8,8,1
1326901922.82455039,47.37634277,8.55030537,491.96591187,8,8,1
1326901922.87653184,47.37634277,8.55030537,491.97805786,8,8,1
1326901922.92452121,47.37634277,8.55030537,491.99020386,8,8,1
1326901922.97753930,47.37634277,8.55030441,492.12759399,8,8,1
1326901923.02451849,47.37634277,8.55030441,492.14013672,8,8,1
1326901923.07658052,47.37634277,8.55030441,492.15261841,8,8,1
1326901923.11752248,47.37634277,8.55030441,492.16510010,8,8,1
1326901923.17662120,47.37634277,8.55030441,492.17504883,8,8,1
1326901923.22455835,47.37634277,8.55030346,492.30966187,8,8,1
1326901923.27712369,47.37634277,8.55030346,492.32241821,8,8,1
1326901923.32464337,47.37634277,8.55030346,492.33514404,8,8,1
1326901923.37753391,47.37633896,8.55030346,492.34780884,8,8,1
1326901923.42602563,47.37633896,8.55030346,492.36044312,8,8,1
1326901923.47658753,47.37633896,8.55030251,492.49432373,8,8,1
1326901923.52591300,47.37633896,8.55030251,492.50735474,8,8,1
1326901923.57765508,47.37633896,8.55030251,492.52035522,8,8,1
1326901923.61720538,47.37633896,8.55030251,492.53329468,8,8,1
1326901923.67751241,47.37633896,8.55030251,492.54360962,8,8,1
1326901923.72466636,47.37633896,8.55030251,492.67880249,8,8,1
1326901923.77751112,47.37633896,8.55030251,492.69210815,8,8,1
1326901923.82450438,47.37633896,8.55030251,492.70538330,8,8,1
1326901923.87660861,47.37633896,8.55030251,492.71859741,8,8,1
1326901923.92495871,47.37633896,8.55030251,492.73178101,8,8,1
1326901923.97763777,47.37633896,8.55030251,492.85696411,8,8,1
1326901924.02557468,47.37633896,8.55030251,492.87048340,8,8,1
1326901924.07750416,47.37633896,8.55030251,492.88397217,8,8,1
1326901924.11761785,47.37633896,8.55030251,492.89743042,8,8,1
1326901924.17750239,47.37633896,8.55030251,492.90817261,8,8,1
1326901924.22451925,47.37633896,8.55030155,493.02886963,8,8,1
1326901924.27664852,47.37633896,8.55030155,493.04260254,8,8,1
1326901924.32553482,47.37633896,8.55030155,493.05627441,8,8,1
1326901924.37653589,47.37633896,8.55030155,493.06991577,8,8,1
1326901924.42897296,47.37633896,8.55030155,493.08352661,8,8,1
1326901924.47753716,47.37633896,8.55030060,493.20733643,8,8,1
1326901924.52859163,47.37633896,8.55030060,493.22131348,8,8,1
1326901924.57764459,47.37633896,8.55030060,493.23526001,8,8,1
1326901924.61755896,47.37633896,8.55030060,493.24920654,8,8,1
1326901924.67654634,47.37633896,8.55030060,493.26031494,8,8,1
1326901924.72549963,47.37633896,8.55030060,493.38623047,8,8,1
1326901924.77756524,47.37633896,8.55030060,493.40048218,8,8,1
1326901924.82959008,47.37633896,8.55030060,493.41467285,8,8,1
1326901924.87789917,47.37633896,8.55030060,493.42883301,8,8,1
1326901924.92862415,47.37633896,8.55030060,493.44290161,8,8,1
1326901924.97750545,47.37633896,8.55029964,493.55822754,8,8,1
1326901925.02473235,47.37633896,8.55029964,493.57260132,8,8,1
1326901925.07757616,47.37633896,8.55029964,493.58694458,8,8,1
1326901925.11755824,47.37633896,8.55029964,493.60125732,8,8,1
1326901925.17661858,47.37633896,8.55029964,493.61267090,8,8,1
1326901925.22456455,47.37633896,8.55029964,493.73248291,8,8,1
1326901925.27749968,47.37633896,8.55029964,493.74703979,8,8,1
1326901925.32472181,47.37633896,8.55029964,493.76153564,8,8,1
1326901925.37603951,47.37633896,8.55029964,493.77600098,8,8,1
1326901925.42555094,47.37633896,8.55029964,493.79043579,8,8,1
1326901925.47656035,47.37633896,8.55029869,493.90701294,8,8,1
1326901925.52551866,47.37633896,8.55029869,493.92175293,8,8,1
1326901925.57653642,47.37633896,8.55029869,493.93643188,8,8,1
1326901925.61755395,47.37633896,8.55029869,493.95108032,8,8,1
1326901925.68166780,47.37633896,8.55029869,493.96276855,8,8,1
1326901925.72455907,47.37633896,8.55029869,494.08029175,8,8,1
1326901925.77751470,47.37633896,8.55029869,494.09521484,8,8,1
1326901925.82452488,47.37633896,8.55029869,494.11010742,8,8,1
1326901925.87714767,47.37633896,8.55029869,494.12493896,8,8,1
1326901925.92548513,47.37633896,8.55029869,494.13973999,8,8,1
1326901925.97661686,47.37633896,8.55029774,494.24868774,8,8,1
1326901926.02462888,47.37633896,8.55029774,494.26373291,8,8,1
1326901926.07752895,47.37633896,8.55029774,494.27877808,8,8,1
1326901926.11666822,47.37633896,8.55029774,494.29373169,8,8,1
1326901926.17750716,47.37633896,8.55029774,494.30569458,8,8,1
1326901926.22489595,47.37633896,8.55029774,494.42419434,8,8,1
1326901926.27648902,47.37633896,8.55029774,494.43945312,8,8,1
1326901926.32550669,47.37633896,8.55029774,494.45468140,8,8,1
1326901926.37651157,47.37633896,8.55029774,494.46990967,8,8,1
1326901926.42475390,47.37633896,8.55029774,494.48504639,8,8,1
1326901926.48568296,47.37633896,8.55029678,494.60064697,8,8,1
1326901926.52449036,47.37633896,8.55029678,494.61611938,8,8,1
1326901926.57750344,47.37633896,8.55029678,494.63156128,8,8,1
1326901926.61736298,47.37633896,8.55029678,494.64697266,8,8,1
1326901926.67652702,47.37633896,8.55029678,494.65930176,8,8,1
1326901926.72554207,47.37633896,8.55029678,494.77310181,8,8,1
1326901926.77711439,47.37633896,8.55029678,494.78878784,8,8,1
1326901926.82556129,47.37633896,8.55029678,494.80444336,8,8,1
1326901926.87753296,47.37633896,8.55029678,494.82003784,8,8,1
1326901926.92504501,47.37633896,8.55029678,494.83563232,8,8,1
1326901926.97632837,47.37633896,8.55029678,494.94393921,8,8,1
1326901927.02513456,47.37633896,8.55029678,494.95977783,8,8,1
1326901927.07761693,47.37633896,8.55029678,494.97558594,8,8,1
1326901927.11750078,47.37633896,8.55029678,494.99133301,8,8,1
1326901927.17688441,47.37633896,8.55029678,495.00393677,8,8,1
1326901927.22485590,47.37633896,8.55029678,495.11270142,8,8,1
1326901927.27751899,47.37633896,8.55029678,495.12869263,8,8,1
1326901927.32557011,47.37633896,8.55029678,495.14462280,8,8,1
1326901927.37750387,47.37633896,8.55029678,495.16052246,8,8,1
1326901927.42475605,47.37633896,8.55029678,495.17639160,8,8,1
1326901927.47754860,47.37633896,8.55029678,495.27835083,8,8,1
1326901927.52971601,47.37633896,8.55029678,495.29446411,8,8,1
1326901927.56553268,47.37633896,8.55029678,495.31054688,8,8,1
1326901927.61653042,47.37633896,8.55029678,495.32333374,8,8,1
1326901927.66551018,47.37633896,8.55029678,495.33932495,8,8,1
1326901927.71652913,47.37633896,8.55029583,495.44924927,8,8,1
1326901927.76964402,47.37633896,8.55029583,495.46551514,8,8,1
1326901927.81754255,47.37633896,8.55029583,495.48171997,8,8,1
1326901927.86569023,47.37633896,8.55029583,495.49792480,8,8,1
1326901927.92550135,47.37633896,8.55029583,495.51406860,8,8,1
1326901927.96646690,47.37633896,8.55029583,495.62866211,8,8,1
1326901928.01662230,47.37633896,8.55029583,495.64178467,8,8,1
1326901928.06952167,47.37633896,8.55029583,495.65817261,8,8,1
1326901928.11875296,47.37633896,8.55029583,495.67456055,8,8,1
1326901928.16557860,47.37633896,8.55029583,495.69085693,8,8,1
1326901928.21749067,47.37633896,8.55029488,495.80123901,8,8,1
1326901928.26861525,47.37633896,8.55029488,495.81784058,8,8,1
1326901928.31749797,47.37633896,8.55029488,495.83438110,8,8,1
1326901928.36458325,47.37633896,8.55029488,495.85089111,8,8,1
1326901928.41756248,47.37633896,8.55029488,495.86737061,8,8,1
1326901928.46566606,47.37633896,8.55029488,495.98025513,8,8,1
1326901928.51605940,47.37633896,8.55029488,495.99700928,8,8,1
1326901928.56450891,47.37633896,8.55029488,496.01373291,8,8,1
1326901928.61751246,47.37633896,8.55029488,496.03039551,8,8,1
1326901928.66573501,47.37633896,8.55029488,496.04702759,8,8,1
1326901928.71662378,47.37633896,8.55029488,496.16348267,8,8,1
1326901928.76558805,47.37633896,8.55029488,496.18045044,8,8,1
1326901928.81656480,47.37633896,8.55029488,496.19735718,8,8,1
1326901928.86550713,47.37633896,8.55029488,496.21423340,8,8,1
1326901928.91656065,47.37633896,8.55029488,496.23107910,8,8,1
1326901928.96543884,47.37633896,8.55029392,496.34265137,8,8,1
1326901929.01748466,47.37633896,8.55029392,496.35977173,8,8,1
1326901929.06567311,47.37633896,8.55029392,496.37686157,8,8,1
1326901929.11750770,47.37633896,8.55029392,496.39392090,8,8,1
1326901929.16611099,47.37633896,8.55029392,496.41091919,8,8,1
1326901929.21710682,47.37633896,8.55029392,496.52066040,8,8,1
1326901929.26551175,47.37633896,8.55029392,496.53793335,8,8,1
1326901929.31666160,47.37633896,8.55029392,496.55514526,8,8,1
1326901929.36463547,47.37633896,8.55029392,496.57232666,8,8,1
1326901929.41701531,47.37633896,8.55029392,496.58947754,8,8,1
1326901929.46516824,47.37633896,8.55029392,496.69601440,8,8,1
1326901929.51749730,47.37633896,8.55029392,496.71337891,8,8,1
1326901929.56457281,47.37633896,8.55029392,496.73071289,8,8,1
1326901929.61650777,47.37633896,8.55029392,496.74798584,8,8,1
1326901929.66950989,47.37633896,8.55029392,496.76522827,8,8,1
1326901929.72062635,47.37634277,8.55029297,496.87472534,8,8,1
1326901929.76450825,47.37634277,8.55029297,496.89221191,8,8,1
1326901929.81754375,47.37634277,8.55029297,496.90963745,8,8,1
1326901929.86563778,47.37633896,8.55029297,496.92703247,8,8,1
1326901929.91751075,47.37633896,8.55029297,496.94439697,8,8,1
1326901929.96453476,47.37634277,8.55029297,497.05349731,8,8,1
1326901930.01689100,47.37634277,8.55029297,497.07113647,8,8,1
1326901930.06471777,47.37634277,8.55029297,497.08871460,8,8,1
1326901930.11662722,47.37634277,8.55029297,497.10626221,8,8,1
1326901930.16558003,47.37634277,8.55029297,497.12380981,8,8,1
1326901930.21751428,47.37634277,8.55029202,497.22705078,8,8,1
1326901930.26966071,47.37634277,8.55029202,497.24481201,8,8,1
1326901930.31749725,47.37634277,8.55029202,497.26254272,8,8,1
1326901930.36636376,47.37634277,8.55029202,497.28024292,8,8,1
1326901930.41614771,47.37634277,8.55029202,497.29788208,8,8,1
1326901930.46550298,47.37634277,8.55029202,497.39291382,8,8,1
1326901930.51663184,47.37634277,8.55029202,497.41076660,8,8,1
1326901930.56556320,47.37634277,8.55029202,497.42855835,8,8,1
1326901930.61674976,47.37634277,8.55029202,497.44631958,8,8,1
1326901930.66484809,47.37634277,8.55029297,497.46405029,8,8,1
1326901930.71749878,47.37634277,8.55029202,497.55108643,8,8,1
1326901930.76462150,47.37634277,8.55029202,497.56900024,8,8,1
1326901930.81663942,47.37634277,8.55029202,497.58682251,8,8,1
1326901930.86555171,47.37634277,8.55029202,497.60461426,8,8,1
1326901930.91665554,47.37634277,8.55029202,497.62237549,8,8,1
1326901930.96466422,47.37634659,8.55029202,497.69393921,8,8,1
1326901931.01661682,47.37634659,8.55029202,497.71179199,8,8,1
1326901931.06550217,47.37634659,8.55029202,497.72964478,8,8,1
1326901931.11761260,47.37634659,8.55029202,497.74743652,8,8,1
1326901931.16569710,47.37634659,8.55029202,497.76519775,8,8,1
1326901931.21659064,47.37634659,8.55029202,497.83178711,8,8,1
1326901931.26551008,47.37634659,8.55029202,497.84963989,8,8,1
1326901931.31649089,47.37634659,8.55029202,497.86740112,8,8,1
1326901931.36446762,47.37634659,8.55029202,497.88513184,8,8,1
1326901931.42548347,47.37634659,8.55029202,497.90283203,8,8,1
1326901931.46553612,47.37634659,8.55029202,497.96270752,8,8,1
1326901931.51749420,47.37634659,8.55029202,497.97689819,8,8,1
1326901931.56454587,47.37634659,8.55029202,497.99456787,8,8,1
1326901931.61656046,47.37634659,8.55029202,498.01220703,8,8,1
1326901931.66549516,47.37634659,8.55029202,498.02978516,8,8,1
1326901931.71704578,47.37634659,8.55029106,498.07360840,8,8,1
1326901931.76454902,47.37634659,8.55029106,498.09118652,8,8,1
1326901931.81652212,47.37634659,8.55029202,498.10873413,8,8,1
1326901931.86451435,47.37634659,8.55029202,498.12625122,8,8,1
1326901931.91749787,47.37634659,8.55029202,498.14370728,8,8,1
1326901931.96513700,47.37635040,8.55029106,498.16369629,8,8,1
1326901932.01681328,47.37635040,8.55029106,498.18099976,8,8,1
1326901932.06553912,47.37635040,8.55029106,498.19827271,8,8,1
1326901932.11650085,47.37635040,8.55029106,498.21548462,8,8,1
1326901932.16552639,47.37635040,8.55029106,498.23269653,8,8,1
1326901932.21721077,47.37635040,8.55029011,498.24780273,8,8,1
1326901932.26575303,47.37635040,8.55029011,498.26486206,8,8,1
1326901932.31751084,47.37635040,8.55029011,498.28186035,8,8,1
1326901932.36453199,47.37635040,8.55029011,498.29879761,8,8,1
1326901932.41664910,47.37635040,8.55029011,498.31570435,8,8,1
1326901932.46550918,47.37635040,8.55029011,498.32968140,8,8,1
1326901932.51755118,47.37635040,8.55029011,498.34649658,8,8,1
1326901932.56455374,47.37635040,8.55029011,498.36325073,8,8,1
1326901932.61753011,47.37635040,8.55029011,498.37997437,8,8,1
1326901932.66553235,47.37635040,8.55029011,498.39663696,8,8,1
1326901932.71749711,47.37635422,8.55029011,498.40136719,8,8,1
1326901932.76449823,47.37635422,8.55029011,498.41781616,8,8,1
1326901932.81664276,47.37635422,8.55029011,498.43423462,8,8,1
1326901932.86950731,47.37635422,8.55029011,498.45065308,8,8,1
1326901932.91750646,47.37635422,8.55029011,498.46701050,8,8,1
1326901932.96463609,47.37635422,8.55029011,498.46691895,8,8,1
1326901933.01760626,47.37635422,8.55029011,498.48312378,8,8,1
1326901933.06462288,47.37635422,8.55029011,498.49926758,8,8,1
1326901933.11749530,47.37635422,8.55029106,498.51535034,8,8,1
1326901933.16565466,47.37635422,8.55029106,498.53140259,8,8,1
1326901933.21764874,47.37635422,8.55029011,498.51815796,8,8,1
1326901933.26561379,47.37635422,8.55029011,498.53399658,8,8,1
1326901933.31662893,47.37635422,8.55029011,498.54977417,8,8,1
1326901933.36552477,47.37635422,8.55029106,498.56552124,8,8,1
1326901933.41749597,47.37635422,8.55029106,498.58123779,8,8,1
1326901933.46563792,47.37635422,8.55029106,498.56134033,8,8,1
1326901933.51750946,47.37635422,8.55029106,498.57681274,8,8,1
1326901933.56565738,47.37635422,8.55029106,498.59222412,8,8,1
1326901933.61666536,47.37635422,8.55029106,498.60760498,8,8,1
1326901933.66551375,47.37635422,8.55029106,498.62295532,8,8,1
1326901933.72063804,47.37635803,8.55029106,498.60089111,8,8,1
1326901933.76955605,47.37635803,8.55029106,498.61599731,8,8,1
1326901933.81651092,47.37635803,8.55029106,498.63104248,8,8,1
1326901933.86554813,47.37635803,8.55029106,498.64608765,8,8,1
1326901933.91749597,47.37635803,8.55029106,498.66110229,8,8,1
1326901933.96462727,47.37635803,8.55029106,498.63275146,8,8,1
1326901934.01654911,47.37635803,8.55029106,498.64752197,8,8,1
1326901934.06451893,47.37635803,8.55029202,498.66226196,8,8,1
1326901934.11664271,47.37635803,8.55029202,498.67694092,8,8,1
1326901934.16555190,47.37635803,8.55029202,498.69155884,8,8,1
1326901934.21649766,47.37635803,8.55029202,498.65432739,8,8,1
1326901934.26453757,47.37635803,8.55029202,498.66864014,8,8,1
1326901934.31749988,47.37635803,8.55029202,498.68292236,8,8,1
1326901934.36598206,47.37635803,8.55029202,498.69714355,8,8,1
1326901934.41662836,47.37635803,8.55029202,498.71133423,8,8,1
1326901934.46950197,47.37635803,8.55029202,498.66744995,8,8,1
1326901934.52058554,47.37635803,8.55029202,498.68133545,8,8,1
1326901934.56535196,47.37635803,8.55029202,498.69515991,8,8,1
1326901934.61676812,47.37635803,8.55029202,498.70895386,8,8,1
1326901934.66601682,47.37635803,8.55029202,498.72271729,8,8,1
1326901934.71750760,47.37636185,8.55029202,498.67208862,8,8,1
1326901934.76497340,47.37636185,8.55029202,498.68548584,8,8,1
1326901934.81658530,47.37636185,8.55029202,498.69888306,8,8,1
1326901934.86551404,47.37636185,8.55029202,498.71221924,8,8,1
1326901934.91652203,47.37636185,8.55029202,498.72549438,8,8,1
1326901934.96648574,47.37636185,8.55029202,498.66909790,8,8,1
1326901935.01752400,47.37636185,8.55029297,498.68203735,8,8,1
1326901935.06457138,47.37636185,8.55029297,498.69494629,8,8,1
1326901935.11748338,47.37636185,8.55029297,498.70779419,8,8,1
1326901935.16567230,47.37636185,8.55029297,498.72061157,8,8,1
1326901935.21753860,47.37636185,8.55029297,498.66537476,8,8,1
1326901935.26550317,47.37636185,8.55029297,498.67785645,8,8,1
1326901935.32064939,47.37636185,8.55029297,498.69027710,8,8,1
1326901935.36463428,47.37636185,8.55029297,498.70269775,8,8,1
1326901935.41707540,47.37636185,8.55029297,498.71505737,8,8,1
1326901935.46463323,47.37636185,8.55029297,498.65017700,8,8,1
1326901935.51751685,47.37636185,8.55029297,498.66217041,8,8,1
1326901935.56552911,47.37636185,8.55029392,498.67410278,8,8,1
1326901935.61755300,47.37636185,8.55029392,498.68600464,8,8,1
1326901935.66552091,47.37636185,8.55029392,498.69784546,6,8,1
1326901935.71414518,47.37636185,8.55029392,498.62582397,6,8,1
1326901935.76564598,47.37636185,8.55029392,498.63720703,6,8,1
1326901935.81752658,47.37636185,8.55029392,498.64855957,6,8,1
1326901935.86453366,47.37636185,8.55029392,498.65988159,6,8,1
1326901935.91751003,47.37636185,8.55029488,498.67114258,6,8,1
1326901935.96553183,47.37636185,8.55029488,498.60693359,6,8,1
1326901936.01663566,47.37636185,8.55029488,498.61779785,6,8,1
1326901936.06552219,47.37636185,8.55029583,498.62866211,6,8,1
1326901936.11652517,47.37636185,8.55029583,498.63946533,6,8,1
1326901936.16554785,47.37636185,8.55029583,498.65023804,6,8,1
1326901936.22566915,47.37636566,8.55029678,498.57699585,6,8,1
1326901936.26565361,47.37636566,8.55029678,498.58938599,6,8,1
1326901936.31749463,47.37636566,8.55029678,498.59762573,6,8,1
1326901936.36849618,47.37636566,8.55029678,498.60787964,6,8,1
1326901936.41684246,47.37636566,8.55029678,498.61807251,6,8,1
1326901936.46547914,47.37636566,8.55029774,498.54519653,6,8,1
1326901936.51771808,47.37636566,8.55029774,498.55502319,6,8,1
1326901936.56949902,47.37636566,8.55029774,498.56481934,6,8,1
1326901936.61751914,47.37636566,8.55029774,498.57458496,6,8,1
1326901936.66550589,47.37636566,8.55029774,498.58428955,6,8,1
1326901936.71750259,47.37636566,8.55029774,498.51708984,6,8,1
1326901936.76851559,47.37636566,8.55029774,498.52642822,6,8,1
1326901936.81648445,47.37636566,8.55029774,498.53576660,6,8,1
1326901936.86553454,47.37636566,8.55029869,498.54504395,6,8,1
1326901936.91648793,47.37636566,8.55029869,498.55429077,6,8,1
1326901936.96462893,47.37636566,8.55029869,498.48785400,6,8,1
1326901937.01649022,47.37636566,8.55029964,498.49673462,6,8,1
1326901937.06455851,47.37636566,8.55029964,498.50558472,6,8,1
1326901937.11752009,47.37636566,8.55029964,498.51437378,6,8,1
1326901937.16555285,47.37636566,8.55029964,498.52316284,6,8,1
1326901937.21662283,47.37636948,8.55030060,498.46411133,6,8,1
1326901937.26551604,47.37636948,8.55030060,498.47253418,6,8,1
1326901937.31659985,47.37636948,8.55030155,498.48095703,6,8,1
1326901937.36454844,47.37636948,8.55030155,498.48931885,6,8,1
1326901937.41731668,47.37636948,8.55030155,498.49768066,6,8,1
1326901937.46453905,47.37636948,8.55030251,498.43063354,6,8,1
1326901937.51737118,47.37636948,8.55030251,498.43856812,6,8,1
1326901937.56549978,47.37636948,8.55030251,498.44647217,6,8,1
